Regional Weather Roundup
Issued by NWS

Home | Current Version | Previous Version | Graphics & Text | Print | Product List | Glossary Off
Versions: 1 2 3 4 5 6 7 8 9 10 11 12 13 14 15 16 17 18 19 20 21 22 23 24 25 26 27 28 29 30 31 32 33 34 35 36 37 38 39 40 41 42 43 44 45 46 47 48 49 50

000
ASUS43 KTOP 290808
RWRKS

WEATHER ROUNDUP FOR KANSAS
NATIONAL WEATHER SERVICE GOODLAND KS
200 AM CST THU JAN 29 2015

NOTE:  "FAIR" INDICATES FEW OR NO CLOUDS BELOW 12,000 FEET WITH NO
SIGNIFICANT WEATHER AND/OR OBSTRUCTIONS TO VISIBILITY.

KSZ001>006-013>018-027>032-041>047-290900-
NORTHWEST KANSAS

CITY           SKY/WX    TMP DP  RH WIND       PRES   REMARKS
GOODLAND       CLEAR     37  31  78 N17       30.28R WCI  27
HAYS           CLEAR     46  30  53 NW21G29   30.19R
HILL CITY      CLEAR     43  32  65 N28G33    30.23R
RUSSELL        CLEAR     48  34  58 NW23      30.15R
$$

KSZ061>065-074>080-084>089-290900-
SOUTHWEST KANSAS

CITY           SKY/WX    TMP DP  RH WIND       PRES   REMARKS
DODGE CITY     CLEAR     46  32  58 N21G30    30.18R
ELKHART          N/A     40  29  65 NW9         N/A
GARDEN CITY    CLEAR     43  32  65 N14       30.20R
LIBERAL        PTCLDY    41  30  65 NW9         N/A
PRATT          CLEAR     46  32  57 NW16      30.16R
$$

KSZ066>073-081>083-090>101-290900-
SOUTHEAST KANSAS

CITY           SKY/WX    TMP DP  RH WIND       PRES   REMARKS
CHANUTE        CLEAR     53  34  48 NW14      30.00R
COFFEYVILLE    PTCLDY    56  33  42 NW9       30.00R
HUTCHINSON     CLEAR     49  31  49 NW13      30.11R
MEDICINE LODGE   N/A     52  34  50 N21G29    30.11S
NEWTON         CLEAR     48  27  43 NW14      30.10R
PARSONS        CLEAR     54  34  46 NW10      30.00R
WICHITA INTL   PTCLDY    51  30  44 NW16      30.08R
WICHITA JABRA  CLEAR     50  31  48 W14       30.08R
WICHITA MCCONL CLEAR     53  32  44 NW14      30.08R
WINFIELD       CLEAR     46  30  53 NW10      30.07R
$$

KSZ007>012-019>026-033>040-048>060-102>105-290900-
NORTHEAST KANSAS

CITY           SKY/WX    TMP DP  RH WIND       PRES   REMARKS
CONCORDIA      CLOUDY    44  34  67 N25G41    30.14R
EMPORIA        CLEAR     49  32  52 W14       30.03R
LAWRENCE       CLEAR     47  36  65 N18       29.98R
MANHATTAN      CLEAR     50  35  56 N7        30.07R
MARYSVILLE     CLOUDY    41  32  70 NW28G39   30.09R
OLATHE IND     CLEAR     48  37  65 NW25G37   29.97R
OLATHE EXE     CLEAR     48  37  65 NW17G24   29.95R
SALINA         CLEAR     50  32  50 NW22      30.11R
TOPEKA BILLARD CLEAR     49  35  58 NW15      30.01R
TOPEKA FORBES  CLEAR     50  34  54 NW20G29   29.99R
$$


USA.gov is the U.S. government's official web portal to all federal, state and local government web resources and services.